FLOCK 4A-18 (44089 NORAD) Tracking and Keplerian Element Data

This shows tracking and keplerian element data for the satellite.

Feedback or suggestion? Click here.




ElementValue
Catalog44089
NameFLOCK 4A-18
Epoch Orbit11117
Epoch Day90.95707869
Epoch Year2021
RAAN153.5641
Inclination97.3703
Eccentricity0.0011752
Argument of Perigee236.4396
Mean Anonmoly123.572
Mean Motion15.24402982
Decay Rate3.17E-05
L11 44089U 19018M 21090.95707869 .00003170 00000-0 13202-3 0 9999
L22 44089 97.3703 153.5641 0011752 236.4396 123.5720 15.24402982111178



Live tracking and technical data element details for FLOCK 4A-18 (NORAD 44089). FLOCK 4A-18 can be tracked NOW for your location showing map with azimuth and elevation plus other details from your city location.







IsCatalogInMostPopularTable: catalog: 44089, numindb: 291
Update: records affected: 1



GetName: 44089 FLOCK 4A-18

Hit Count: updated at: Thu, 22 May 2025 03:35:04 GMT